Wind_Speed
47 41 41 43 41 43 49 54 55 63 73 80 88 86 100 115 121 122 128 118 116 110 100 101 70 83 89 93 92 89 89 86 91 87 83 81 79 77 79 79 79 73 73 73
44 37 35 37 36 36 40 47 51 60 68 71 78 79 95 107 116 119 125 119 116 112 105 105 99 48 41 69 93 99 96 90 87 92 87 83 84 80 80 80 80 76 76 76
40 38 37 31 30 29 30 37 46 52 62 64 72 78 91 102 108 115 119 118 112 112 105 102 114 91 62 59 57 90 108 100 98 86 85 83 85 84 83 82 83 81 83 81
40 39 36 32 25 22 28 26 37 44 55 58 67 70 80 92 101 111 118 117 109 108 106 97 108 101 82 75 30 72 88 111 101 98 83 81 81 79 85 84 83 83 83 80
45 39 36 29 22 22 21 18 24 35 40 49 52 56 71 84 92 103 115 115 105 106 107 98 101 104 105 73 87 82 78 73 101 102 91 81 78 79 84 84 85 82 82 83
40 37 32 22 18 19 14 13 17 25 31 34 46 54 65 68 74 94 101 105 102 107 105 96 98 102 111 112 84 76 83 83 84 104 99 85 74 72 76 77 81 83 84 77
40 35 28 21 19 15 11 5 9 15 20 27 33 38 52 61 69 81 93 99 102 104 104 99 99 105 108 118 83 72 59 74 81 85 98 91 90 85 76 71 74 76 79 75
38 33 24 16 17 12 6 6 3 8 14 18 23 34 48 60 67 76 90 93 104 103 103 98 92 99 107 110 113 98 88 91 84 80 74 85 93 93 91 90 85 77 75 78
38 33 20 12 9 13 20 23 19 5 13 18 25 33 43 54 60 71 82 97 103 105 104 97 99 95 104 110 111 115 111 101 97 93 89 91 92 97 97 99 96 97 95 94
39 34 22 12 5 7 18 24 30 21 11 6 13 23 35 47 58 63 72 84 96 99 100 102 103 95 91 88 98 97 101 102 102 102 96 90 94 102 101 100 101 102 100 102
39 36 11 15 5 7 17 26 40 41 25 10 7 7 14 27 39 55 64 74 84 94 92 96 98 94 88 81 77 88 81 97 107 111 101 101 100 102 102 104 103 99 97 98
35 29 12 7 5 16 35 47 49 47 44 33 25 17 7 15 29 43 53 63 75 86 82 89 95 92 87 76 57 62 67 71 71 82 97 105 100 100 100 99 100 97 96 94
34 30 12 20 11 18 32 48 46 46 43 36 30 29 29 15 8 23 35 48 60 75 84 87 86 88 82 82 67 57 59 53 50 58 75 90 100 93 98 94 95 96 92 90
37 28 19 14 6 29 41 52 50 45 43 37 39 34 35 28 23 13 23 39 56 67 78 76 80 68 74 66 54 36 48 55 59 37 39 51 57 64 73 78 81 83 84 87
43 34 26 2 11 40 46 45 46 51 37 28 33 33 29 23 7 11 15 33 44 55 65 63 66 63 65 58 46 58 57 66 64 58 50 64 69 69 72 70 74 75 75 77
53 37 28 22 8 13 47 45 40 42 28 24 22 31 38 27 11 13 16 21 32 35 41 34 44 54 63 61 46 32 53 61 68 67 67 63 68 77 75 75 78 75 75 70
57 42 30 13 18 25 46 40 21 26 40 38 33 29 30 17 26 35 41 38 29 50 69 55 67 62 56 72 44 63 77 69 75 68 66 61 63 66 64 62 62 67 69 71
69 52 35 19 25 31 41 36 34 45 34 38 40 42 38 25 28 27 44 33 22 39 63 72 78 66 68 82 81 67 70 58 60 50 57 61 63 69 70 72 72 74 75 74
70 61 32 23 7 29 30 28 38 47 40 29 35 40 32 39 35 29 48 53 46 41 48 65 80 59 72 67 73 80 79 69 73 67 65 71 74 75 77 77 81 82 78 75
67 64 43 17 14 7 34 41 45 39 45 36 34 38 37 40 42 50 51 60 58 58 50 59 54 63 52 67 68 66 76 87 81 77 73 75 77 77 81 89 89 85 79 77
66 63 56 31 17 12 10 25 43 49 59 43 43 43 39 45 53 56 51 63 60 66 66 74 65 63 68 67 74 74 73 79 77 78 81 81 81 85 91 84 75 73 75 75
66 63 56 42 19 20 16 14 17 43 56 62 49 52 55 45 48 55 55 52 72 78 79 76 72 56 61 62 61 66 74 73 71 71 73 80 85 84 74 71 69 72 75 79
65 65 60 48 26 18 21 20 21 23 43 51 68 64 47 62 53 46 62 67 69 73 76 76 76 64 61 65 68 71 75 76 76 80 79 71 69 68 69 72 75 77 78 79
65 61 57 47 32 19 19 19 19 24 21 27 46 65 54 48 42 44 53 78 78 74 76 75 83 83 70 67 69 71 77 82 77 72 69 68 70 72 75 77 77 75 73 75
65 61 52 43 34 25 19 16 17 22 20 23 36 58 54 47 40 39 41 49 76 84 81 79 82 84 83 77 72 72 72 72 72 74 74 74 74 75 75 73 72 73 70 70
62 56 50 38 32 26 19 21 18 19 20 22 30 46 60 61 54 46 39 44 46 59 71 80 87 84 81 76 76 76 76 76 76 75 76 74 73 72 70 67 67 68 62 49
Wind_Direction
310 301 291 284 274 261 255 248 239 237 235 229 227 220 224 219 221 222 225 224 221 222 219 214 218 231 231 232 229 232 237 236 243 241 241 244 244 246 250 252 254 257 261 262
317 309 302 291 282 269 256 249 238 232 231 228 225 218 217 219 220 219 222 221 220 219 219 208 205 209 223 243 238 235 234 237 239 242 243 245 247 247 249 252 255 257 258 262
327 322 317 303 295 277 261 247 244 231 229 225 223 214 217 217 215 219 220 219 217 217 217 211 208 210 181 214 252 246 237 235 235 239 241 244 248 249 252 254 255 255 258 263
336 334 325 317 308 288 272 250 239 234 228 222 223 211 214 218 216 214 216 217 214 213 215 213 213 207 199 208 188 242 235 232 231 232 236 241 241 248 251 253 257 260 263 266
341 338 331 324 321 306 286 259 240 235 230 224 220 214 214 218 214 214 214 214 213 211 213 209 212 209 201 206 192 218 234 237 231 229 231 233 245 247 248 253 257 262 266 267
344 339 337 342 343 324 299 265 238 230 221 218 217 206 214 216 217 213 215 211 212 210 211 207 208 210 208 211 221 228 236 230 233 229 232 232 236 242 250 254 258 261 263 262
345 346 349 357 359 351 340 267 239 224 215 212 212 208 212 211 214 213 210 212 211 211 209 207 207 208 210 215 224 218 224 227 228 233 234 238 243 247 246 254 260 260 265 265
348 350 349 11 29 14 20 65 148 201 189 186 187 207 207 209 209 209 209 205 212 211 211 208 211 211 212 218 218 221 223 230 233 240 240 239 244 250 252 252 256 260 263 264
355 358 355 37 63 96 90 75 66 119 159 192 196 202 208 207 211 210 206 204 206 211 208 206 212 214 215 218 220 229 237 246 248 250 253 251 249 252 255 259 261 262 265 268
356 352 354 12 20 84 101 84 70 72 131 153 206 207 206 200 209 213 207 209 209 212 209 204 210 213 217 222 229 236 243 247 251 253 252 252 252 252 254 257 263 265 269 273
357 1 14 24 75 94 97 90 82 76 81 102 126 193 209 211 212 218 210 207 210 212 209 205 209 212 215 220 228 232 241 245 248 250 251 252 252 254 256 258 261 266 270 273
360 6 57 113 86 94 91 95 93 91 86 83 84 109 121 193 210 213 214 211 208 210 206 203 205 210 213 216 222 224 239 256 262 253 251 252 255 256 258 260 263 268 271 274
4 14 81 121 109 102 109 108 105 96 86 76 74 78 77 74 205 208 207 208 210 208 206 204 205 206 211 218 228 236 254 256 257 261 259 261 256 256 258 260 263 265 269 272
2 12 13 134 135 109 120 121 110 97 87 80 82 80 93 79 77 139 199 204 201 205 206 199 201 203 212 212 215 200 231 246 273 257 250 252 253 259 259 260 264 265 269 274
1 4 11 341 167 128 125 114 108 106 98 109 100 94 53 90 28 84 188 195 200 199 205 199 199 203 206 202 209 211 238 244 254 244 241 253 263 260 262 265 267 268 273 274
6 3 11 353 219 147 129 117 109 105 116 109 93 113 104 95 216 104 121 153 156 176 166 163 182 196 202 184 184 189 228 219 235 244 251 254 252 261 264 265 270 269 276 280
5 7 15 35 122 124 140 112 97 138 131 116 120 140 123 154 149 118 115 127 144 162 167 174 203 196 187 187 190 207 218 238 244 243 248 252 260 264 265 266 271 279 281 282
10 8 4 7 134 142 160 146 135 160 150 149 153 162 183 187 174 127 121 119 141 159 176 185 183 196 200 201 199 216 220 220 234 238 243 247 250 256 261 264 272 279 283 287
8 11 358 353 98 154 175 179 166 175 184 182 175 172 174 186 163 174 147 153 172 159 179 186 194 198 208 210 216 224 227 230 230 247 254 252 251 255 256 265 274 280 285 288
2 9 9 329 322 293 176 181 181 195 197 192 195 193 192 187 169 163 164 172 178 180 177 173 183 202 199 211 216 222 224 233 237 249 248 248 250 256 263 268 277 280 284 288
354 1 7 353 312 275 291 185 189 192 193 196 210 211 201 203 192 177 183 186 179 181 178 188 190 206 211 220 221 227 231 232 242 246 247 249 256 262 267 274 278 282 287 289
345 353 358 359 320 283 281 266 225 203 199 205 207 214 213 206 202 207 205 191 186 178 178 188 191 205 212 212 218 228 234 237 240 243 250 252 259 263 271 277 282 284 288 291
339 343 350 354 346 297 276 265 259 226 207 211 213 214 216 220 219 203 193 186 189 190 188 191 194 202 214 216 219 227 234 238 244 250 254 252 255 267 274 279 283 286 288 291
332 339 349 351 346 320 279 274 254 251 243 220 213 215 210 211 213 204 194 193 191 193 192 199 202 205 211 214 221 228 232 234 239 241 249 256 267 273 275 279 283 288 290 292
327 333 345 348 341 324 293 280 268 252 253 236 210 208 203 203 208 201 199 199 200 203 205 201 203 206 214 221 227 229 231 236 243 251 259 265 270 273 277 282 285 289 292 293
322 330 340 347 335 322 290 278 269 255 245 233 213 211 211 215 214 221 207 204 204 202 207 214 217 221 224 228 232 237 242 246 250 256 261 266 271 275 280 284 287 288 289 284
Height
10523 10512 10502 10495 10493 10493 10491 10491 10501 10507 10508 10516 10527 10569 10583 10592 10601 10627 10642 10672 10694 10725 10762 10794 10816 10806 10838 10855 10857 10860 10863 10869 10870 10878 10884 10889 10895 10899 10899 10901 10901 10909 10908 10903
10505 10494 10488 10480 10476 10475 10475 10475 10478 10481 10485 10496 10512 10545 10546 10560 10588 10605 10621 10652 10672 10708 10742 10776 10787 10805 10841 10846 10851 10850 10844 10857 10860 10863 10874 10879 10881 10886 10889 10891 10892 10896 10894 10894
10493 10484 10475 10471 10463 10459 10457 10461 10462 10467 10467 10481 10494 10514 10526 10541 10563 10589 10609 10630 10659 10690 10734 10759 10775 10804 10836 10823 10848 10838 10830 10834 10845 10851 10863 10864 10868 10874 10878 10880 10881 10880 10884 10884
10486 10474 10466 10457 10450 10447 10444 10447 10448 10450 10456 10469 10478 10503 10518 10532 10553 10570 10589 10612 10645 10679 10720 10746 10757 10793 10817 10835 10839 10786 10803 10813 10825 10840 10846 10853 10856 10863 10865 10869 10871 10871 10874 10876
10477 10468 10459 10451 10444 10441 10438 10436 10438 10442 10454 10466 10479 10503 10513 10520 10540 10561 10576 10600 10637 10666 10696 10734 10745 10768 10794 10801 10790 10775 10789 10801 10810 10825 10838 10843 10849 10856 10853 10858 10864 10863 10862 10863
10476 10465 10457 10450 10445 10441 10436 10435 10435 10440 10447 10460 10471 10485 10496 10520 10542 10555 10577 10606 10627 10650 10685 10720 10733 10746 10758 10767 10774 10784 10782 10795 10804 10816 10826 10835 10843 10845 10844 10850 10856 10854 10850 10853
10473 10466 10459 10452 10448 10444 10440 10438 10439 10443 10451 10458 10476 10496 10502 10511 10528 10547 10565 10598 10616 10642 10676 10704 10721 10741 10750 10759 10770 10777 10781 10791 10802 10812 10822 10832 10835 10840 10843 10846 10844 10842 10843 10846
10474 10468 10462 10457 10453 10449 10444 10440 10443 10447 10454 10464 10478 10482 10492 10499 10514 10528 10550 10582 10605 10633 10666 10703 10728 10741 10747 10753 10768 10773 10777 10787 10790 10799 10811 10829 10828 10832 10835 10833 10830 10839 10839 10835
10476 10471 10464 10458 10455 10447 10444 10445 10449 10452 10457 10462 10467 10478 10491 10507 10518 10527 10546 10569 10587 10613 10653 10693 10707 10720 10734 10750 10765 10760 10768 10777 10781 10788 10805 10816 10819 10820 10817 10818 10822 10825 10828 10825
10481 10472 10462 10460 10457 10453 10451 10454 10457 10460 10464 10468 10475 10484 10493 10504 10512 10527 10547 10570 10590 10606 10645 10672 10686 10714 10731 10748 10753 10763 10770 10770 10778 10786 10798 10805 10805 10797 10806 10812 10811 10810 10813 10808
10482 10478 10470 10466 10462 10461 10461 10459 10460 10466 10471 10477 10482 10489 10499 10507 10522 10530 10545 10562 10587 10612 10640 10669 10693 10710 10722 10740 10752 10763 10763 10768 10783 10784 10786 10784 10787 10790 10797 10799 10798 10798 10797 10792
10485 10483 10476 10477 10472 10469 10468 10469 10471 10473 10474 10481 10487 10493 10499 10506 10513 10526 10542 10568 10584 10602 10640 10658 10681 10704 10720 10740 10752 10760 10764 10768 10776 10770 10772 10776 10781 10780 10780 10784 10785 10782 10778 10775
10489 10485 10480 10480 10477 10475 10474 10472 10479 10478 10479 10483 10489 10496 10504 10514 10526 10535 10549 10562 10583 10603 10619 10648 10676 10703 10724 10741 10758 10771 10771 10770 10763 10761 10760 10765 10762 10763 10766 10770 10770 10766 10765 10763
10493 10488 10487 10485 10483 10483 10483 10483 10480 10482 10480 10492 10502 10506 10507 10516 10523 10531 10543 10555 10567 10591 10614 10652 10675 10703 10720 10745 10769 10751 10739 10751 10755 10757 10750 10748 10747 10749 10751 10752 10751 10751 10750 10751
10497 10490 10489 10488 10488 10492 10494 10492 10491 10489 10496 10502 10503 10506 10509 10511 10522 10533 10540 10550 10575 10598 10618 10654 10679 10700 10715 10738 10757 10769 10753 10751 10745 10744 10736 10729 10730 10734 10736 10736 10737 10737 10739 10737
10501 10495 10490 10490 10490 10495 10499 10505 10507 10499 10503 10506 10509 10515 10514 10525 10532 10547 10552 10561 10579 10606 10634 10657 10676 10688 10699 10723 10737 10762 10737 10737 10723 10726 10725 10722 10723 10723 10724 10724 10727 10727 10724 10721
10504 10495 10492 10492 10493 10499 10501 10501 10512 10513 10506 10506 10510 10519 10518 10530 10546 10550 10553 10568 10584 10601 10623 10640 10668 10679 10690 10697 10713 10717 10715 10713 10708 10714 10714 10713 10712 10712 10711 10713 10715 10715 10710 10707
10511 10497 10494 10497 10493 10497 10502 10492 10486 10498 10507 10508 10512 10516 10525 10535 10544 10550 10550 10567 10584 10601 10617 10632 10649 10661 10671 10682 10685 10686 10695 10695 10696 10697 10699 10700 10700 10698 10700 10702 10702 10699 10697 10696
10519 10504 10495 10495 10497 10498 10497 10497 10496 10500 10505 10507 10512 10518 10521 10526 10538 10554 10557 10565 10578 10591 10605 10622 10637 10649 10656 10662 10673 10682 10683 10684 10684 10684 10686 10686 10685 10686 10688 10687 10688 10688 10688 10682
10519 10512 10502 10496 10497 10500 10496 10497 10502 10504 10509 10507 10509 10515 10523 10528 10539 10546 10555 10565 10573 10580 10596 10612 10628 10636 10644 10653 10660 10662 10665 10670 10672 10676 10674 10675 10675 10675 10677 10677 10677 10678 10675 10671
10518 10511 10504 10497 10495 10495 10497 10499 10498 10494 10502 10507 10506 10510 10517 10528 10537 10543 10550 10561 10568 10575 10586 10597 10609 10618 10623 10634 10642 10646 10651 10653 10654 10657 10660 10661 10663 10664 10667 10670 10669 10665 10661 10654
10513 10509 10502 10494 10490 10488 10488 10491 10495 10495 10500 10502 10503 10506 10512 10521 10532 10540 10544 10555 10563 10569 10576 10584 10593 10603 10612 10618 10623 10629 10633 10636 10639 10645 10648 10650 10653 10658 10658 10657 10654 10650 10645 10639
10505 10502 10497 10490 10484 10481 10480 10481 10483 10487 10493 10493 10495 10498 10503 10513 10520 10531 10536 10543 10556 10563 10567 10574 10584 10593 10600 10604 10608 10612 10616 10623 10630 10632 10639 10643 10646 10646 10645 10643 10639 10635 10632 10628
10497 10493 10488 10483 10477 10475 10472 10471 10474 10474 10478 10480 10481 10489 10496 10503 10510 10516 10528 10536 10544 10553 10562 10568 10577 10585 10593 10596 10601 10605 10610 10618 10623 10626 10629 10631 10632 10634 10633 10628 10624 10621 10619 10617
10486 10485 10482 10476 10469 10466 10465 10464 10464 10465 10467 10468 10471 10479 10486 10495 10501 10508 10517 10528 10536 10542 10552 10560 10568 10577 10582 10588 10592 10597 10602 10607 10611 10614 10616 10618 10619 10619 10617 10614 10612 10611 10608 10604
10475 10476 10474 10470 10464 10459 10458 10457 10458 10459 10460 10461 10464 10470 10477 10486 10496 10500 10508 10516 10525 10535 10543 10551 10559 10566 10570 10577 10582 10588 10592 10596 10599 10601 10605 10606 10606 10606 10605 10602 10601 10597 10594 10590